�������l�o���
Date,Time,MP-1(��Sv/h),MP-2(��Sv/h),MP-3(��Sv/h),MP-4(��Sv/h),MP-5(��Sv/h),MP-6(��Sv/h),MP-7(��Sv/h),MP-8(��Sv/h),����,����(m/s),���J
2024/06/22,00:00,0.500,0.766,0.483,0.957,0.695,0.315,0.552,0.508,�k�k��,5.2,��
2024/06/22,00:10,0.501,0.764,0.482,0.955,0.695,0.313,0.552,0.509,�k�k��,5.2,��
2024/06/22,00:20,0.499,0.766,0.483,0.955,0.696,0.315,0.552,0.508,�k�k��,5.1,��
2024/06/22,00:30,0.500,0.766,0.484,0.955,0.694,0.315,0.552,0.509,�k��,4.9,��
2024/06/22,00:40,0.501,0.766,0.482,0.955,0.694,0.313,0.552,0.509,�k�k��,5.3,��
2024/06/22,00:50,0.500,0.764,0.483,0.956,0.693,0.314,0.551,0.508,�k�k��,6.0,��
2024/06/22,01:00,0.499,0.765,0.482,0.955,0.693,0.314,0.552,0.509,�k��,6.0,��
2024/06/22,01:10,0.501,0.765,0.483,0.957,0.694,0.315,0.552,0.510,�k��,5.7,��
2024/06/22,01:20,0.501,0.763,0.483,0.957,0.695,0.315,0.551,0.509,�k��,5.9,��
2024/06/22,01:30,0.498,0.764,0.482,0.955,0.695,0.314,0.550,0.510,�k��,5.8,��
2024/06/22,01:40,0.500,0.765,0.483,0.954,0.695,0.314,0.553,0.508,�k��,5.6,��
2024/06/22,01:50,0.501,0.765,0.483,0.957,0.693,0.315,0.552,0.509,�k��,6.0,��
2024/06/22,02:00,0.500,0.764,0.483,0.956,0.694,0.315,0.551,0.509,�k��,5.9,��
2024/06/22,02:10,0.500,0.766,0.483,0.957,0.693,0.315,0.552,0.510,���k��,6.0,��
2024/06/22,02:20,0.500,0.764,0.482,0.958,0.694,0.314,0.552,0.509,�k��,5.6,��
2024/06/22,02:30,0.501,0.764,0.481,0.957,0.694,0.314,0.551,0.508,�k��,5.0,��
2024/06/22,02:40,0.499,0.764,0.481,0.958,0.693,0.315,0.552,0.509,�k��,5.0,��
2024/06/22,02:50,0.498,0.764,0.482,0.959,0.694,0.313,0.553,0.508,�k��,4.2,��
2024/06/22,03:00,0.500,0.766,0.483,0.957,0.694,0.314,0.552,0.511,�k��,4.1,��
2024/06/22,03:10,0.501,0.767,0.482,0.958,0.695,0.314,0.553,0.510,�k��,4.3,��
2024/06/22,03:20,0.501,0.763,0.483,0.958,0.695,0.315,0.554,0.509,�k��,4.5,��
2024/06/22,03:30,0.499,0.765,0.482,0.956,0.695,0.313,0.554,0.509,�k��,4.0,��
2024/06/22,03:40,0.498,0.767,0.483,0.956,0.695,0.314,0.553,0.509,���k��,3.9,��
2024/06/22,03:50,0.501,0.767,0.482,0.960,0.695,0.315,0.554,0.510,���k��,3.4,��
2024/06/22,04:00,0.500,0.766,0.482,0.960,0.694,0.315,0.553,0.511,���k��,3.1,��
2024/06/22,04:10,0.499,0.764,0.483,0.958,0.693,0.315,0.553,0.509,���k��,2.5,��
2024/06/22,04:20,0.501,0.766,0.483,0.957,0.694,0.314,0.554,0.510,���k��,2.0,��
2024/06/22,04:30,0.500,0.764,0.482,0.958,0.694,0.313,0.553,0.508,���k��,2.5,��
2024/06/22,04:40,0.500,0.766,0.483,0.957,0.695,0.314,0.552,0.510,�k��,1.7,��
2024/06/22,04:50,0.498,0.764,0.482,0.959,0.695,0.313,0.552,0.511,���k��,2.0,��
2024/06/22,05:00,0.499,0.765,0.483,0.957,0.695,0.314,0.554,0.511,��,2.0,��
2024/06/22,05:10,0.500,0.765,0.482,0.957,0.695,0.314,0.553,0.509,���쐼,1.7,��
2024/06/22,05:20,0.500,0.766,0.483,0.960,0.695,0.314,0.552,0.512,��쐼,1.2,��
2024/06/22,05:30,0.500,0.766,0.482,0.958,0.696,0.315,0.552,0.508,��쐼,0.8,��
2024/06/22,05:40,0.503,0.766,0.483,0.960,0.695,0.315,0.552,0.509,��쐼,0.9,��
2024/06/22,05:50,0.499,0.764,0.482,0.959,0.697,0.315,0.554,0.510,��쐼,1.4,��
2024/06/22,06:00,0.501,0.766,0.484,0.961,0.694,0.314,0.554,0.510,��,1.5,��
2024/06/22,06:10,0.502,0.767,0.482,0.960,0.696,0.316,0.554,0.510,�쐼,1.7,��
2024/06/22,06:20,0.501,0.765,0.481,0.960,0.695,0.314,0.554,0.510,�쐼,2.3,��
2024/06/22,06:30,0.500,0.764,0.482,0.959,0.694,0.313,0.553,0.510,��,1.1,��
2024/06/22,06:40,0.499,0.765,0.481,0.958,0.695,0.313,0.552,0.509,��,2.2,��
2024/06/22,06:50,0.499,0.766,0.483,0.959,0.694,0.314,0.555,0.510,��,3.2,��
2024/06/22,07:00,0.499,0.764,0.483,0.959,0.693,0.313,0.554,0.512,��,3.7,��
2024/06/22,07:10,0.500,0.764,0.483,0.959,0.696,0.313,0.555,0.510,��쓌,2.9,��
2024/06/22,07:20,0.499,0.765,0.482,0.960,0.694,0.314,0.554,0.509,��,3.3,��
2024/06/22,07:30,0.500,0.764,0.481,0.961,0.694,0.313,0.552,0.509,��,3.2,��
2024/06/22,07:40,0.498,0.766,0.483,0.960,0.694,0.313,0.553,0.509,��,3.8,��
2024/06/22,07:50,0.499,0.766,0.482,0.959,0.695,0.313,0.551,0.507,��쓌,3.1,��
2024/06/22,08:00,0.501,0.767,0.484,0.958,0.695,0.314,0.554,0.508,��쓌,3.5,��
2024/06/22,08:10,0.501,0.768,0.483,0.959,0.695,0.314,0.552,0.507,��쓌,2.8,��
2024/06/22,08:20,0.502,0.767,0.485,0.960,0.696,0.313,0.553,0.507,��쓌,3.6,��
2024/06/22,08:30,0.501,0.766,0.483,0.958,0.696,0.314,0.553,0.509,��,3.1,��
2024/06/22,08:40,0.502,0.768,0.484,0.958,0.696,0.316,0.552,0.509,��,3.8,��
2024/06/22,08:50,0.503,0.769,0.485,0.959,0.696,0.314,0.553,0.509,��쓌,4.7,��
2024/06/22,09:00,0.501,0.771,0.484,0.961,0.696,0.314,0.552,0.508,��쓌,5.3,��
2024/06/22,09:10,0.501,0.770,0.486,0.961,0.698,0.315,0.553,0.508,��쓌,5.7,��
2024/06/22,09:20,0.503,0.771,0.486,0.958,0.696,0.316,0.554,0.508,��쓌,7.1,��
2024/06/22,09:30,0.503,0.769,0.484,0.961,0.697,0.315,0.554,0.508,��쓌,6.7,��
2024/06/22,09:40,0.503,0.769,0.485,0.960,0.699,0.315,0.555,0.509,��쓌,6.9,��
2024/06/22,09:50,0.505,0.772,0.485,0.960,0.699,0.316,0.552,0.507,��쓌,7.1,��
2024/06/22,10:00,0.504,0.771,0.487,0.960,0.701,0.314,0.553,0.510,��쓌,8.9,��
2024/06/22,10:10,0.503,0.773,0.486,0.960,0.700,0.315,0.553,0.508,��쓌,7.2,��
2024/06/22,10:20,0.503,0.771,0.486,0.961,0.698,0.315,0.554,0.511,��,7.7,��
2024/06/22,10:30,0.505,0.772,0.486,0.961,0.697,0.315,0.553,0.509,��쓌,6.5,��
2024/06/22,10:40,0.505,0.775,0.488,0.959,0.701,0.316,0.554,0.510,��쓌,7.1,��
2024/06/22,10:50,0.505,0.774,0.487,0.962,0.700,0.314,0.554,0.509,��쓌,7.9,��
2024/06/22,11:00,0.505,0.774,0.487,0.961,0.701,0.315,0.553,0.509,��,8.4,��
2024/06/22,11:10,0.505,0.773,0.487,0.962,0.700,0.315,0.553,0.509,��쓌,8.7,��
2024/06/22,11:20,0.504,0.773,0.487,0.960,0.701,0.317,0.552,0.509,��,7.2,��
2024/06/22,11:30,0.504,0.776,0.486,0.962,0.703,0.316,0.553,0.508,��,6.0,��
2024/06/22,11:40,0.506,0.773,0.487,0.959,0.702,0.316,0.552,0.509,��,6.9,��
2024/06/22,11:50,0.504,0.774,0.486,0.961,0.701,0.316,0.551,0.509,��쓌,7.1,��
2024/06/22,12:00,0.506,0.774,0.487,0.959,0.701,0.317,0.551,0.509,��,5.4,��
2024/06/22,12:10,0.505,0.775,0.487,0.959,0.700,0.316,0.554,0.509,��,4.7,��
2024/06/22,12:20,0.506,0.773,0.489,0.960,0.701,0.316,0.552,0.509,��,5.0,��
2024/06/22,12:30,0.506,0.774,0.487,0.960,0.702,0.316,0.552,0.508,��,5.3,��
2024/06/22,12:40,0.505,0.775,0.487,0.962,0.705,0.315,0.553,0.510,��,4.9,��
2024/06/22,12:50,0.506,0.774,0.489,0.961,0.704,0.315,0.552,0.510,��,4.3,��
2024/06/22,13:00,0.506,0.776,0.489,0.961,0.705,0.318,0.552,0.510,��,4.3,��
2024/06/22,13:10,0.506,0.775,0.490,0.960,0.704,0.317,0.552,0.508,��,5.7,��
2024/06/22,13:20,0.508,0.775,0.490,0.963,0.705,0.317,0.552,0.510,��,6.4,��
2024/06/22,13:30,0.506,0.777,0.490,0.961,0.704,0.317,0.551,0.509,��쓌,8.5,��
2024/06/22,13:40,0.507,0.777,0.490,0.962,0.704,0.317,0.552,0.510,��쓌,10.2,��
2024/06/22,13:50,0.508,0.777,0.489,0.964,0.705,0.317,0.553,0.510,��쓌,10.6,��
2024/06/22,14:00,0.506,0.777,0.488,0.963,0.705,0.317,0.551,0.511,��쓌,11.9,��
2024/06/22,14:10,0.508,0.776,0.488,0.963,0.706,0.317,0.552,0.510,��쓌,10.5,��
2024/06/22,14:20,0.507,0.774,0.488,0.964,0.708,0.316,0.553,0.511,��쓌,9.1,��
2024/06/22,14:30,0.508,0.775,0.489,0.964,0.706,0.316,0.552,0.508,��쓌,11.0,��
2024/06/22,14:40,0.508,0.778,0.489,0.963,0.706,0.316,0.552,0.511,��,10.8,��
2024/06/22,14:50,0.507,0.776,0.489,0.965,0.706,0.318,0.551,0.509,��,10.5,��
2024/06/22,15:00,0.507,0.777,0.488,0.965,0.706,0.316,0.553,0.510,��쓌,10.2,��
2024/06/22,15:10,0.507,0.777,0.488,0.964,0.707,0.316,0.552,0.510,��쓌,10.9,��
2024/06/22,15:20,0.507,0.777,0.487,0.964,0.708,0.319,0.552,0.511,��,11.6,��
2024/06/22,15:30,0.506,0.778,0.489,0.966,0.706,0.317,0.552,0.511,��쓌,8.7,��
2024/06/22,15:40,0.508,0.778,0.488,0.962,0.707,0.317,0.553,0.511,��,7.9,��
2024/06/22,15:50,0.506,0.776,0.489,0.964,0.705,0.318,0.552,0.510,��,7.5,��
2024/06/22,16:00,0.508,0.778,0.490,0.964,0.708,0.317,0.553,0.509,��,7.7,��
2024/06/22,16:10,0.508,0.777,0.489,0.966,0.706,0.319,0.553,0.510,��,10.2,��
2024/06/22,16:20,0.510,0.778,0.488,0.965,0.707,0.317,0.552,0.509,��,9.5,��
2024/06/22,16:30,0.507,0.778,0.490,0.966,0.708,0.318,0.552,0.510,��,8.7,��
2024/06/22,16:40,0.507,0.778,0.492,0.967,0.707,0.317,0.553,0.509,��,9.6,��
2024/06/22,16:50,0.508,0.779,0.491,0.966,0.708,0.318,0.553,0.511,��,10.5,��
2024/06/22,17:00,0.507,0.777,0.490,0.967,0.708,0.317,0.551,0.510,��,10.6,��
2024/06/22,17:10,0.507,0.776,0.489,0.966,0.709,0.317,0.552,0.509,��,8.7,��
2024/06/22,17:20,0.507,0.778,0.490,0.969,0.707,0.317,0.552,0.508,��,9.3,��
2024/06/22,17:30,0.507,0.777,0.489,0.966,0.709,0.317,0.553,0.509,��,7.6,��
2024/06/22,17:40,0.508,0.777,0.489,0.966,0.708,0.316,0.552,0.509,��,8.5,��
2024/06/22,17:50,0.508,0.778,0.490,0.966,0.710,0.317,0.552,0.510,��,10.2,��
2024/06/22,18:00,0.508,0.777,0.488,0.965,0.709,0.316,0.551,0.511,��,9.2,��
2024/06/22,18:10,0.506,0.779,0.489,0.969,0.709,0.316,0.551,0.512,��,8.3,��
2024/06/22,18:20,0.507,0.779,0.491,0.966,0.710,0.316,0.552,0.512,��,8.7,��
2024/06/22,18:30,0.508,0.780,0.490,0.968,0.710,0.316,0.549,0.512,��,8.8,�L
2024/06/22,18:40,0.508,0.779,0.492,0.967,0.709,0.319,0.551,0.512,��쓌,8.6,��
2024/06/22,18:50,0.506,0.781,0.491,0.966,0.710,0.317,0.551,0.512,��,9.7,��
2024/06/22,19:00,0.508,0.779,0.490,0.968,0.708,0.317,0.551,0.511,��,8.3,��
2024/06/22,19:10,0.507,0.778,0.490,0.967,0.710,0.318,0.553,0.512,��,8.4,��
2024/06/22,19:20,0.506,0.778,0.491,0.966,0.709,0.316,0.554,0.511,��,8.0,��
2024/06/22,19:30,0.506,0.779,0.491,0.967,0.711,0.317,0.553,0.513,��,7.5,��
2024/06/22,19:40,0.506,0.779,0.491,0.969,0.708,0.317,0.552,0.512,��,7.5,��
2024/06/22,19:50,0.507,0.777,0.491,0.968,0.709,0.317,0.553,0.513,��,7.4,��
2024/06/22,20:00,0.507,0.780,0.489,0.969,0.709,0.316,0.553,0.512,��,7.8,��
2024/06/22,20:10,0.508,0.780,0.491,0.969,0.709,0.317,0.553,0.513,��,8.1,��
2024/06/22,20:20,0.507,0.778,0.491,0.969,0.709,0.317,0.554,0.512,��,9.0,��
2024/06/22,20:30,0.508,0.780,0.489,0.968,0.710,0.317,0.552,0.513,��,9.4,��
2024/06/22,20:40,0.507,0.781,0.489,0.970,0.709,0.316,0.554,0.512,��,8.5,��
2024/06/22,20:50,0.507,0.778,0.490,0.969,0.708,0.318,0.552,0.512,��,7.4,��
2024/06/22,21:00,0.508,0.775,0.489,0.970,0.710,0.318,0.552,0.510,��,6.8,��
2024/06/22,21:10,0.507,0.777,0.489,0.972,0.709,0.316,0.553,0.513,��,8.2,��
2024/06/22,21:20,0.508,0.778,0.489,0.971,0.708,0.318,0.552,0.513,��,6.8,��
2024/06/22,21:30,0.509,0.779,0.490,0.968,0.710,0.317,0.552,0.512,��,5.3,��
2024/06/22,21:40,0.507,0.780,0.490,0.970,0.708,0.317,0.553,0.513,��,6.3,��
2024/06/22,21:50,0.507,0.780,0.492,0.968,0.711,0.318,0.554,0.513,��,6.3,��
2024/06/22,22:00,0.508,0.782,0.490,0.970,0.709,0.318,0.551,0.512,��,8.6,��
2024/06/22,22:10,0.508,0.779,0.491,0.968,0.709,0.318,0.554,0.513,��,9.7,��
2024/06/22,22:20,0.509,0.779,0.490,0.971,0.709,0.319,0.553,0.513,��,9.1,��
2024/06/22,22:30,0.509,0.779,0.490,0.969,0.709,0.317,0.554,0.512,��,7.0,��
2024/06/22,22:40,0.509,0.780,0.492,0.968,0.711,0.317,0.553,0.512,��,5.8,��
2024/06/22,22:50,0.509,0.780,0.491,0.970,0.709,0.317,0.554,0.511,��,5.7,��
2024/06/22,23:00,0.509,0.781,0.493,0.970,0.710,0.317,0.553,0.511,��쓌,6.5,��
2024/06/22,23:10,0.507,0.779,0.492,0.968,0.709,0.317,0.555,0.512,��쓌,7.5,��
2024/06/22,23:20,0.508,0.781,0.491,0.971,0.709,0.318,0.553,0.513,��,5.9,��
2024/06/22,23:30,0.509,0.780,0.491,0.970,0.711,0.317,0.554,0.513,��,5.0,��
2024/06/22,23:40,0.508,0.780,0.491,0.970,0.709,0.317,0.553,0.513,��,4.3,��
2024/06/22,23:50,0.505,0.781,0.491,0.972,0.709,0.316,0.553,0.513,��,4.5,��
